Radiation Dose at Monitoring Post of Fukushima Daini Nuclear Power Station
Date,Time,MP-1(microSv/h),MP-2(microSv/h),MP-3(microSv/h),MP-4(microSv/h),MP-5(microSv/h),MP-6(microSv/h),MP-7(microSv/h),Wind Direction,Wind Velocity(m/s),Rain
2021/06/14,00:00,0.171,0.156,0.252,0.242,0.239,0.133,0.084,north-northwest,1.0,No
2021/06/14,00:10,0.171,0.155,0.251,0.245,0.236,0.134,0.083,north,1.0,No
2021/06/14,00:20,0.170,0.155,0.252,0.246,0.239,0.133,0.083,north-northwest,1.2,No
2021/06/14,00:30,0.172,0.156,0.250,0.243,0.237,0.134,0.083,northwest,0.9,Yes
2021/06/14,00:40,0.171,0.155,0.252,0.245,0.236,0.134,0.084,north,1.1,Yes
2021/06/14,00:50,0.172,0.157,0.251,0.243,0.240,0.133,0.084,north-northwest,1.1,Yes
2021/06/14,01:00,0.172,0.155,0.252,0.245,0.238,0.135,0.085,north-northwest,1.6,Yes
2021/06/14,01:10,0.172,0.157,0.253,0.245,0.241,0.135,0.085,north-northwest,2.5,Yes
2021/06/14,01:20,0.174,0.157,0.251,0.246,0.240,0.135,0.084,north-northwest,3.0,No
2021/06/14,01:30,0.172,0.157,0.254,0.247,0.239,0.135,0.085,north-northwest,2.8,No
2021/06/14,01:40,0.172,0.157,0.251,0.243,0.240,0.134,0.085,north,1.9,No
2021/06/14,01:50,0.172,0.157,0.253,0.247,0.237,0.135,0.084,north,1.5,No
2021/06/14,02:00,0.172,0.157,0.253,0.243,0.239,0.135,0.084,north,1.3,No
2021/06/14,02:10,0.173,0.156,0.252,0.246,0.238,0.135,0.084,north,0.6,No
2021/06/14,02:20,0.172,0.157,0.254,0.245,0.237,0.135,0.084,north,0.8,No
2021/06/14,02:30,0.172,0.156,0.251,0.242,0.238,0.134,0.083,north-northeast,1.0,No
2021/06/14,02:40,0.170,0.156,0.252,0.244,0.236,0.134,0.083,north-northeast,1.3,No
2021/06/14,02:50,0.171,0.155,0.251,0.242,0.239,0.132,0.082,northeast,0.6,No
2021/06/14,03:00,0.171,0.155,0.251,0.244,0.237,0.134,0.083,northeast,0.6,No
2021/06/14,03:10,0.170,0.155,0.252,0.243,0.236,0.133,0.082,north,0.7,No
2021/06/14,03:20,0.172,0.154,0.250,0.242,0.238,0.132,0.082,north-northeast,0.9,No
2021/06/14,03:30,0.169,0.155,0.252,0.245,0.236,0.133,0.083,north,0.7,No
2021/06/14,03:40,0.171,0.155,0.249,0.242,0.238,0.133,0.081,northeast,1.1,No
2021/06/14,03:50,0.170,0.155,0.251,0.243,0.238,0.133,0.083,east-northeast,0.8,No
2021/06/14,04:00,0.170,0.154,0.250,0.242,0.235,0.132,0.082,east-northeast,1.8,No
2021/06/14,04:10,0.171,0.156,0.250,0.243,0.239,0.132,0.083,-,CALM,No
2021/06/14,04:20,0.169,0.154,0.249,0.242,0.237,0.133,0.082,northeast,1.0,No
2021/06/14,04:30,0.171,0.155,0.250,0.243,0.237,0.132,0.082,north-northeast,0.6,No
2021/06/14,04:40,0.170,0.154,0.250,0.244,0.236,0.134,0.083,-,CALM,No
2021/06/14,04:50,0.171,0.154,0.249,0.242,0.237,0.133,0.082,west,0.7,No
2021/06/14,05:00,0.171,0.155,0.250,0.244,0.238,0.133,0.083,southwest,0.8,No
2021/06/14,05:10,0.170,0.155,0.249,0.243,0.235,0.133,0.082,-,CALM,No
2021/06/14,05:20,0.171,0.157,0.250,0.243,0.240,0.134,0.083,-,CALM,No
2021/06/14,05:30,0.170,0.155,0.250,0.243,0.237,0.134,0.082,-,CALM,No
2021/06/14,05:40,0.172,0.155,0.251,0.243,0.238,0.133,0.083,-,CALM,No
2021/06/14,05:50,0.171,0.154,0.250,0.244,0.238,0.133,0.082,west,0.6,No
2021/06/14,06:00,0.171,0.156,0.251,0.242,0.236,0.133,0.083,west,1.0,No
2021/06/14,06:10,0.171,0.155,0.251,0.243,0.240,0.133,0.082,west-northwest,1.1,No
2021/06/14,06:20,0.170,0.155,0.251,0.243,0.237,0.133,0.083,north,1.0,No
2021/06/14,06:30,0.172,0.155,0.253,0.243,0.239,0.133,0.084,north-northwest,0.7,No
2021/06/14,06:40,0.170,0.155,0.250,0.245,0.239,0.134,0.083,north,1.2,No
2021/06/14,06:50,0.173,0.155,0.252,0.242,0.236,0.132,0.083,north-northeast,1.4,No
2021/06/14,07:00,0.171,0.154,0.252,0.244,0.239,0.133,0.082,north,1.8,No
2021/06/14,07:10,0.171,0.155,0.250,0.244,0.239,0.134,0.082,north,0.9,No
2021/06/14,07:20,0.172,0.155,0.251,0.241,0.237,0.133,0.083,north,1.8,No
2021/06/14,07:30,0.170,0.155,0.251,0.245,0.236,0.133,0.083,north,2.0,No
2021/06/14,07:40,0.170,0.156,0.251,0.244,0.239,0.134,0.084,north,2.1,No
2021/06/14,07:50,0.171,0.154,0.251,0.243,0.236,0.133,0.084,north,2.2,No
2021/06/14,08:00,0.171,0.154,0.250,0.244,0.237,0.133,0.081,north,3.5,No
2021/06/14,08:10,0.169,0.156,0.250,0.243,0.238,0.133,0.082,north,4.8,No
2021/06/14,08:20,0.171,0.154,0.252,0.242,0.237,0.132,0.083,north,4.9,Yes
2021/06/14,08:30,0.171,0.154,0.249,0.240,0.235,0.132,0.082,north,5.7,No
2021/06/14,08:40,0.169,0.155,0.248,0.244,0.236,0.133,0.082,north,5.3,No
2021/06/14,08:50,0.170,0.153,0.251,0.242,0.238,0.132,0.082,north,5.3,No
2021/06/14,09:00,0.169,0.154,0.251,0.241,0.237,0.132,0.082,north,5.3,No
2021/06/14,09:10,0.170,0.154,0.248,0.241,0.235,0.132,0.081,north,4.7,No
2021/06/14,09:20,0.170,0.154,0.248,0.244,0.234,0.133,0.082,north,5.0,No
2021/06/14,09:30,0.169,0.154,0.250,0.244,0.234,0.133,0.082,north,5.4,No
2021/06/14,09:40,0.171,0.154,0.251,0.241,0.238,0.132,0.082,north,5.9,No
2021/06/14,09:50,0.170,0.154,0.246,0.240,0.237,0.133,0.082,north,6.4,No
2021/06/14,10:00,0.169,0.155,0.244,0.244,0.235,0.133,0.082,north,4.3,No
2021/06/14,10:10,0.170,0.154,0.247,0.243,0.234,0.132,0.081,north,5.9,No
2021/06/14,10:20,0.170,0.154,0.250,0.242,0.237,0.132,0.081,north,5.4,No
2021/06/14,10:30,0.170,0.155,0.251,0.240,0.238,0.132,0.082,north-northeast,5.2,No
2021/06/14,10:40,0.170,0.154,0.247,0.243,0.236,0.131,0.081,north-northeast,6.8,No
2021/06/14,10:50,0.169,0.154,0.248,0.243,0.234,0.133,0.082,north-northeast,6.2,No
2021/06/14,11:00,0.170,0.155,0.252,0.240,0.237,0.132,0.082,north-northeast,6.1,No
2021/06/14,11:10,0.170,0.153,0.251,0.244,0.237,0.132,0.082,north-northeast,4.6,No
2021/06/14,11:20,0.169,0.154,0.249,0.242,0.235,0.132,0.082,north-northeast,4.6,No
2021/06/14,11:30,0.171,0.155,0.252,0.241,0.234,0.132,0.082,north-northeast,4.0,No
2021/06/14,11:40,0.170,0.154,0.251,0.242,0.237,0.134,0.081,north-northeast,3.2,No
2021/06/14,11:50,0.169,0.152,0.249,0.243,0.238,0.132,0.082,north-northeast,3.0,No
2021/06/14,12:00,0.171,0.154,0.250,0.241,0.235,0.133,0.082,north-northeast,2.4,No
2021/06/14,12:10,0.170,0.154,0.252,0.240,0.234,0.132,0.081,north-northeast,2.9,No
2021/06/14,12:20,0.169,0.153,0.249,0.241,0.235,0.133,0.081,north,2.8,No
2021/06/14,12:30,0.172,0.155,0.250,0.245,0.233,0.132,0.081,north,3.0,No
2021/06/14,12:40,0.171,0.155,0.247,0.242,0.234,0.132,0.082,north-northeast,3.2,No
2021/06/14,12:50,0.169,0.153,0.248,0.242,0.234,0.132,0.081,north,3.3,No
2021/06/14,13:00,0.168,0.153,0.252,0.240,0.234,0.131,0.081,north-northeast,3.5,No
2021/06/14,13:10,0.169,0.154,0.251,0.240,0.234,0.133,0.082,north-northeast,2.3,No
2021/06/14,13:20,0.171,0.155,0.250,0.240,0.234,0.132,0.082,north-northeast,2.1,No
2021/06/14,13:30,0.169,0.154,0.251,0.236,0.234,0.132,0.081,northeast,3.0,No
2021/06/14,13:40,0.168,0.153,0.248,0.237,0.236,0.132,0.082,northeast,2.2,No
2021/06/14,13:50,0.167,0.154,0.247,0.239,0.239,0.133,0.081,north-northeast,0.7,No
2021/06/14,14:00,0.168,0.155,0.253,0.243,0.238,0.133,0.083,-,CALM,No
2021/06/14,14:10,0.173,0.155,0.252,0.242,0.236,0.130,0.082,north-northwest,0.9,No
2021/06/14,14:20,0.171,0.154,0.250,0.240,0.234,0.129,0.082,-,CALM,No
2021/06/14,14:30,0.170,0.153,0.249,0.240,0.235,0.131,0.081,east,0.9,No
2021/06/14,14:40,0.169,0.154,0.248,0.240,0.235,0.132,0.083,east-northeast,1.1,No
2021/06/14,14:50,0.168,0.154,0.251,0.245,0.233,0.132,0.082,east-southeast,1.5,No
2021/06/14,15:00,0.168,0.156,0.253,0.245,0.232,0.133,0.082,southeast,2.3,No
2021/06/14,15:10,0.169,0.155,0.250,0.243,0.235,0.132,0.080,southeast,3.2,No
2021/06/14,15:20,0.171,0.154,0.249,0.240,0.239,0.132,0.082,south-southeast,3.3,No
2021/06/14,15:30,0.172,0.155,0.251,0.244,0.238,0.133,0.082,south-southeast,3.4,No
2021/06/14,15:40,0.169,0.155,0.251,0.244,0.236,0.132,0.082,south-southeast,3.1,No
2021/06/14,15:50,0.172,0.154,0.249,0.242,0.238,0.132,0.082,south-southeast,3.5,No
2021/06/14,16:00,0.170,0.156,0.252,0.243,0.238,0.133,0.081,south-southeast,2.8,No
2021/06/14,16:10,0.170,0.155,0.251,0.243,0.236,0.132,0.083,south-southeast,3.1,No
2021/06/14,16:20,0.172,0.154,0.250,0.241,0.238,0.132,0.083,south-southeast,2.9,No
2021/06/14,16:30,0.170,0.155,0.252,0.245,0.239,0.131,0.082,south,4.8,No
2021/06/14,16:40,0.169,0.154,0.253,0.243,0.237,0.132,0.082,south-southeast,2.2,No
2021/06/14,16:50,0.171,0.155,0.249,0.242,0.237,0.133,0.082,south,5.0,No
2021/06/14,17:00,0.170,0.155,0.251,0.244,0.237,0.133,0.082,south,5.3,No
2021/06/14,17:10,0.171,0.154,0.250,0.243,0.236,0.133,0.083,south,5.1,No
2021/06/14,17:20,0.172,0.156,0.251,0.244,0.239,0.133,0.082,south,5.1,Yes
2021/06/14,17:30,0.169,0.154,0.251,0.244,0.238,0.133,0.082,south,5.1,No
2021/06/14,17:40,0.171,0.154,0.250,0.241,0.236,0.133,0.082,south,4.7,No
2021/06/14,17:50,0.171,0.156,0.252,0.245,0.240,0.133,0.082,south,4.4,No
2021/06/14,18:00,0.169,0.154,0.250,0.243,0.236,0.133,0.082,south,4.7,No
2021/06/14,18:10,0.171,0.155,0.251,0.241,0.236,0.133,0.082,south,5.2,No
2021/06/14,18:20,0.170,0.155,0.251,0.244,0.238,0.132,0.083,south-southwest,5.2,No
2021/06/14,18:30,0.171,0.155,0.249,0.242,0.235,0.133,0.083,south-southwest,4.4,No
2021/06/14,18:40,0.171,0.155,0.252,0.242,0.238,0.133,0.083,south-southwest,4.2,No
2021/06/14,18:50,0.170,0.154,0.251,0.244,0.238,0.133,0.082,south-southwest,4.1,No
2021/06/14,19:00,0.171,0.155,0.251,0.242,0.234,0.133,0.082,south,3.5,No
2021/06/14,19:10,0.170,0.154,0.252,0.245,0.238,0.133,0.082,south,3.5,No
2021/06/14,19:20,0.170,0.155,0.250,0.243,0.237,0.133,0.082,south,3.2,No
2021/06/14,19:30,0.172,0.156,0.252,0.243,0.235,0.132,0.081,south,3.6,No
2021/06/14,19:40,0.170,0.155,0.251,0.245,0.239,0.133,0.082,south-southwest,4.2,No
2021/06/14,19:50,0.172,0.155,0.250,0.243,0.236,0.133,0.082,south,4.0,No
2021/06/14,20:00,0.171,0.153,0.252,0.244,0.239,0.133,0.082,south,3.8,No
2021/06/14,20:10,0.172,0.156,0.250,0.242,0.238,0.134,0.083,south,3.0,No
2021/06/14,20:20,0.172,0.155,0.253,0.243,0.237,0.133,0.082,south,2.6,No
2021/06/14,20:30,0.170,0.155,0.250,0.244,0.240,0.134,0.082,south,2.4,No
2021/06/14,20:40,0.172,0.156,0.252,0.242,0.237,0.133,0.082,south-southwest,2.5,No
2021/06/14,20:50,0.171,0.155,0.253,0.245,0.238,0.133,0.082,south-southwest,2.2,No
2021/06/14,21:00,0.170,0.156,0.252,0.243,0.238,0.134,0.082,south-southwest,2.4,No
2021/06/14,21:10,0.171,0.155,0.252,0.245,0.238,0.133,0.083,southwest,2.2,No
2021/06/14,21:20,0.171,0.156,0.251,0.244,0.239,0.135,0.083,-,CALM,No
2021/06/14,21:30,0.171,0.155,0.253,0.244,0.238,0.133,0.082,south-southwest,0.6,No
2021/06/14,21:40,0.171,0.157,0.251,0.246,0.240,0.134,0.083,west,0.6,No
2021/06/14,21:50,0.171,0.155,0.252,0.244,0.240,0.134,0.083,northwest,0.8,No
2021/06/14,22:00,0.171,0.156,0.252,0.246,0.239,0.133,0.084,northwest,1.1,No
2021/06/14,22:10,0.171,0.155,0.252,0.243,0.239,0.135,0.083,north-northwest,1.4,No
2021/06/14,22:20,0.172,0.156,0.253,0.245,0.237,0.134,0.084,north-northwest,2.5,No
2021/06/14,22:30,0.172,0.156,0.252,0.244,0.240,0.133,0.083,north,3.3,No
2021/06/14,22:40,0.172,0.157,0.254,0.245,0.237,0.134,0.084,north-northwest,3.8,No
2021/06/14,22:50,0.172,0.157,0.252,0.246,0.239,0.134,0.083,north-northwest,3.6,No
2021/06/14,23:00,0.173,0.156,0.253,0.244,0.239,0.133,0.084,north-northwest,3.6,No
2021/06/14,23:10,0.172,0.156,0.251,0.246,0.238,0.134,0.083,north-northwest,3.1,No
2021/06/14,23:20,0.172,0.157,0.254,0.244,0.239,0.135,0.084,north-northwest,3.1,No
2021/06/14,23:30,0.173,0.157,0.252,0.246,0.239,0.133,0.085,north-northwest,2.5,No
2021/06/14,23:40,0.171,0.158,0.253,0.244,0.241,0.135,0.084,north-northwest,0.8,No
2021/06/14,23:50,0.173,0.157,0.253,0.246,0.239,0.135,0.084,north-northwest,0.9,No
